Date String (YYYY-MM-DD hh:mm:ss) UTC,Instrument flags,Ambient pressure (hPa),Sample flow (lpm),Bypass flow (lpm),Sample temperature (°C),Ambient temperature (°C),ASC tube jacket temperature (°C),LED temperature (°C),Box temperature (°C),Sample RH (%),Span deviation,Mass concentration (μg/m³),Mass concentration (μg/m³),Mass concentration (μg/m³)
DateTimeUTC,F1_M11,P_M11,Q1_M11,Q2_M11,T1_M11,T2_M11,T3_M11,T4_M11,T5_M11,U1_M11,ZSPAN_M11,X0_M11,X2_M11,X1_M11
2022-07-20 00:00:00,,0826.0,5.00,0.00,29.2,27.1,00.0,37.7,31.1,21.8,0000.0,0011.19,0004.29,0003.41
2022-07-20 00:01:00,,0826.0,5.01,0.00,29.2,27.2,00.0,37.8,31.1,23.0,0000.0,0010.88,0004.30,0003.42
2022-07-20 00:02:00,,0826.0,5.00,0.00,29.2,27.3,00.0,37.8,31.1,24.3,0000.0,0010.73,0004.38,0003.48
2022-07-20 00:03:00,,0826.1,5.00,0.00,29.2,27.5,00.0,37.8,31.1,24.4,0000.0,0010.53,0004.48,0003.55
2022-07-20 00:04:00,,0826.2,5.00,0.00,29.2,27.7,00.0,37.8,31.2,26.7,0000.0,0010.86,0004.60,0003.66
2022-07-20 00:05:00,,0826.2,5.00,0.00,29.2,27.5,00.0,37.8,31.2,28.3,0000.0,0012.12,0004.80,0003.79
2022-07-20 00:06:00,,0826.2,5.00,0.00,29.2,27.0,00.0,37.7,31.0,28.4,0000.0,0012.82,0005.09,0003.97
2022-07-20 00:07:00,,0826.2,5.00,0.00,29.2,26.9,00.0,37.7,31.0,28.6,0000.0,0013.26,0005.34,0004.12
2022-07-20 00:08:00,,0826.2,5.01,0.00,29.1,27.0,00.0,37.8,31.0,29.0,0000.0,0014.49,0005.54,0004.25
2022-07-20 00:09:00,,0826.2,5.00,0.00,29.1,27.2,00.0,37.8,31.0,29.3,0000.0,0015.21,0005.74,0004.37
2022-07-20 00:10:00,,0826.2,4.99,0.00,29.1,27.5,00.0,37.8,31.0,29.5,0000.0,0015.92,0005.95,0004.50
2022-07-20 00:11:00,,0826.1,5.00,0.00,29.2,27.7,00.0,37.8,31.1,29.5,0000.0,0015.82,0006.11,0004.61
2022-07-20 00:12:00,,0826.2,4.99,0.00,29.2,27.9,00.0,37.8,31.2,29.4,0000.0,0016.75,0006.28,0004.72
2022-07-20 00:13:00,,0826.2,5.01,0.00,29.2,27.6,00.0,37.8,31.2,28.3,0000.0,0016.68,0006.38,0004.78
2022-07-20 00:14:00,,0826.1,4.99,0.00,29.2,27.1,00.0,37.7,31.1,28.4,0000.0,0016.85,0006.54,0004.85
2022-07-20 00:15:00,,0826.2,5.02,0.00,29.2,27.0,00.0,37.7,31.0,28.6,0000.0,0017.41,0006.68,0004.90
2022-07-20 00:16:00,,0826.1,4.99,0.00,29.1,27.1,00.0,37.7,31.0,28.6,0000.0,0017.44,0006.76,0004.93
2022-07-20 00:17:00,,0826.2,5.00,0.00,29.1,27.3,00.0,37.8,31.0,28.4,0000.0,0017.61,0006.74,0004.92
2022-07-20 00:18:00,,0826.2,5.00,0.00,29.1,27.5,00.0,37.8,31.1,28.5,0000.0,0017.49,0006.70,0004.91
2022-07-20 00:19:00,,0826.2,5.00,0.00,29.2,27.7,00.0,37.8,31.1,28.9,0000.0,0016.98,0006.76,0004.91
2022-07-20 00:20:00,,0826.2,4.99,0.00,29.2,27.7,00.0,37.8,31.2,29.3,0000.0,0017.43,0006.74,0004.90
2022-07-20 00:21:00,,0826.2,5.01,0.00,29.2,27.2,00.0,37.7,31.1,29.3,0000.0,0016.86,0006.75,0004.90
2022-07-20 00:22:00,,0826.2,5.00,0.00,29.2,26.9,00.0,37.7,31.0,29.6,0000.0,0017.41,0006.81,0004.90
2022-07-20 00:23:00,,0826.2,4.99,0.00,29.1,26.9,00.0,37.7,31.0,30.5,0000.0,0017.67,0006.81,0004.89
2022-07-20 00:24:00,,0826.3,5.00,0.00,29.1,27.1,00.0,37.7,30.9,30.5,0000.0,0017.65,0006.80,0004.88
2022-07-20 00:25:00,,0826.2,5.00,0.00,29.1,27.3,00.0,37.8,31.0,30.3,0000.0,0017.78,0006.75,0004.87
2022-07-20 00:26:00,,0826.3,5.00,0.00,29.1,27.5,00.0,37.8,31.0,30.3,0000.0,0018.31,0006.69,0004.87
2022-07-20 00:27:00,,0826.3,5.00,0.00,29.1,27.7,00.0,37.8,31.1,30.2,0000.0,0018.14,0006.70,0004.87
2022-07-20 00:28:00,,0826.4,5.00,0.00,29.2,27.9,00.0,37.8,31.2,30.0,0000.0,0017.82,0006.70,0004.89
2022-07-20 00:29:00,,0826.3,5.00,0.00,29.2,27.6,00.0,37.8,31.2,29.8,0000.0,0018.00,0006.72,0004.91
2022-07-20 00:30:00,,0826.4,4.99,0.00,29.2,27.0,00.0,37.7,31.1,30.0,0000.0,0018.51,0006.64,0004.91
2022-07-20 00:31:00,,0826.4,4.99,0.00,29.2,26.9,00.0,37.7,31.0,30.0,0000.0,0018.40,0006.59,0004.92
2022-07-20 00:32:00,,0826.4,5.01,0.00,29.1,27.0,00.0,37.8,31.0,29.8,0000.0,0018.33,0006.53,0004.93
2022-07-20 00:33:00,,0826.5,5.00,0.00,29.1,27.2,00.0,37.8,31.0,30.3,0000.0,0017.58,0006.46,0004.94
2022-07-20 00:34:00,,0826.5,5.00,0.00,29.1,27.4,00.0,37.8,31.0,30.0,0000.0,0017.17,0006.43,0004.95
2022-07-20 00:35:00,,0826.5,4.99,0.00,29.1,27.6,00.0,37.8,31.1,30.0,0000.0,0017.42,0006.39,0004.96
2022-07-20 00:36:00,,0826.5,5.00,0.00,29.2,27.9,00.0,37.8,31.2,29.8,0000.0,0017.01,0006.30,0004.95
2022-07-20 00:37:00,,0826.5,5.01,0.00,29.2,27.9,00.0,37.8,31.2,29.3,0000.0,0015.69,0006.27,0004.94
2022-07-20 00:38:00,,0826.5,5.00,0.00,29.2,27.3,00.0,37.8,31.2,29.4,0000.0,0014.62,0006.19,0004.94
2022-07-20 00:39:00,,0826.5,4.99,0.00,29.2,26.9,00.0,37.7,31.1,29.5,0000.0,0015.09,0006.18,0004.92
2022-07-20 00:40:00,,0826.5,5.01,0.00,29.2,26.9,00.0,37.7,31.0,29.8,0000.0,0015.54,0006.20,0004.90
2022-07-20 00:41:00,,0826.5,5.00,0.00,29.1,27.1,00.0,37.8,31.0,29.7,0000.0,0015.38,0006.30,0004.90
2022-07-20 00:42:00,,0826.5,5.00,0.00,29.1,27.3,00.0,37.8,31.0,29.9,0000.0,0015.05,0006.37,0004.90
2022-07-20 00:43:00,,0826.5,5.00,0.00,29.1,27.5,00.0,37.8,31.1,29.7,0000.0,0015.10,0006.38,0004.89
2022-07-20 00:44:00,,0826.5,5.00,0.00,29.2,27.8,00.0,37.8,31.1,29.8,0000.0,0015.91,0006.43,0004.90
2022-07-20 00:45:00,,0826.5,5.00,0.00,29.2,27.8,00.0,37.8,31.2,29.7,0000.0,0016.13,0006.47,0004.91
2022-07-20 00:46:00,,0826.5,5.00,0.00,29.2,27.2,00.0,37.8,31.1,29.8,0000.0,0016.65,0006.58,0004.92
2022-07-20 00:47:00,,0826.5,4.99,0.00,29.2,26.8,00.0,37.7,31.0,30.0,0000.0,0018.00,0006.66,0004.94
2022-07-20 00:48:00,,0826.5,5.01,0.00,29.1,26.8,00.0,37.7,31.0,30.1,0000.0,0018.77,0006.72,0004.96
2022-07-20 00:49:00,,0826.5,5.00,0.00,29.1,27.0,00.0,37.7,30.9,30.2,0000.0,0019.31,0006.76,0004.96
2022-07-20 00:50:00,,0826.5,5.00,0.00,29.1,27.2,00.0,37.8,30.9,30.4,0000.0,0020.04,0006.80,0004.97
2022-07-20 00:51:00,,0826.6,5.00,0.00,29.1,27.4,00.0,37.8,31.0,30.5,0000.0,0020.49,0006.86,0004.99
2022-07-20 00:52:00,,0826.6,5.00,0.00,29.1,27.7,00.0,37.8,31.1,30.5,0000.0,0020.37,0006.83,0005.00
2022-07-20 00:53:00,,0826.6,4.99,0.00,29.2,27.9,00.0,37.8,31.2,30.5,0000.0,0020.03,0006.82,0005.04
2022-07-20 00:54:00,,0826.6,5.00,0.00,29.2,28.0,00.0,37.8,31.2,30.5,0000.0,0019.97,0006.86,0005.07
2022-07-20 00:55:00,,0826.6,5.00,0.00,29.2,27.4,00.0,37.8,31.2,30.5,0000.0,0020.10,0006.92,0005.10
2022-07-20 00:56:00,,0826.6,5.01,0.00,29.2,27.0,00.0,37.7,31.1,30.7,0000.0,0019.76,0006.96,0005.12
2022-07-20 00:57:00,,0826.6,4.99,0.00,29.1,27.0,00.0,37.8,31.0,30.9,0000.0,0019.79,0006.93,0005.12
2022-07-20 00:58:00,,0826.7,5.01,0.00,29.1,27.1,00.0,37.8,30.9,31.0,0000.0,0019.83,0006.94,0005.14
2022-07-20 00:59:00,,0826.7,5.00,0.00,29.1,27.3,00.0,37.8,31.0,31.0,0000.0,0019.80,0006.94,0005.15
